• MPC Preparation (Info)

  • MPEC 2014-N21 : 2014 MB55

    The following Minor Planet Electronic Circular may be linked-to from your own Web pages, but must not otherwise be redistributed electronically.

    A form allowing access to any MPEC is at the bottom of this page.


    Read MPEC 2014-N20 Read MPEC 2014-N22


    M.P.E.C. 2014-N21                                Issued 2014 July 4, 02:52 UT
    
         The Minor Planet Electronic Circulars contain information on unusual
             minor planets and routine data on comets.  They are published
       on behalf of Commission 20 of the International Astronomical Union by the
              Minor Planet Center, Smithsonian Astrophysical Observatory,
                              Cambridge, MA 02138, U.S.A.
    
                 Prepared using the Tamkin Foundation Computer Network
    
                                  MPC@CFA.HARVARD.EDU
                URL https://www.minorplanetcenter.net/    ISSN 1523-6714
    
                                       2014 MB55
    
    Observations:
         K14M55B* C2014 06 29.52511 21 15 47.574-25 29 23.18         21.1 wLEN021F51
         K14M55B  C2014 06 29.53562 21 15 49.044-25 29 02.32         21.0 wLEN021F51
         K14M55B  C2014 06 29.54619 21 15 50.508-25 28 41.44         21.2 wLEN021F51
         K14M55B  C2014 06 29.55669 21 15 51.982-25 28 20.31         21.2 wLEN021F51
         K14M55B _C2014 06 30.48807121 18 36.482-24 58 44.93         19.9 RtEN021568
         K14M55B _C2014 06 30.48932421 18 36.632-24 58 42.79         19.8 RtEN021568
         K14M55B _C2014 06 30.49057521 18 36.788-24 58 40.52         19.7 RtEN021568
         K14M55B  C2014 07 03.55674 21 25 08.926-23 39 56.51         21.2 wLEN021F51
         K14M55B  C2014 07 03.56798 21 25 09.628-23 39 41.27         21.3 wLEN021F51
         K14M55B  C2014 07 03.57918 21 25 10.340-23 39 26.24         21.3 wLEN021F51
         K14M55B  C2014 07 03.59040 21 25 11.072-23 39 10.98         21.3 wLEN021F51
    
    Observer details:
    568 Mauna Kea.  Observers R. J. Wainscoat, D. Woodworth.  Measurers M. Micheli,
        R. J. Wainscoat.  3.6-m Canada-France-Hawaii Telescope + CCD.
    F51 Pan-STARRS 1, Haleakala.  Observers N. Primak, A. Schultz, T. Goggia,
        M. Willman.  1.8-m Ritchey-Chretien + CCD.
    
    Orbital elements:
    2014 MB55                                                Earth MOID = 0.0153 AU
    Epoch 2014 May 23.0 TT = JDT 2456800.5                  MPC
    M 357.25330              (2000.0)            P               Q
    n   0.22636678     Peri.  193.27377     -0.33337141     +0.94268147
    a   2.6664140      Node    57.25448     -0.86339745     -0.29901018
    e   0.6141404      Incl.    0.99926     -0.37869293     -0.14813698
    P   4.35           H   24.5           G   0.15           U   4
    Residuals in seconds of arc
    140629 F51  0.1+  0.0     140630 568  0.0   0.0     140703 F51  0.0   0.1+
    140629 F51  0.1+  0.1+    140630 568  0.0   0.0     140703 F51  0.0   0.1+
    140629 F51  0.1-  0.1-    140630 568  0.1+  0.1+    140703 F51  0.1+  0.1+
    140629 F51  0.1+  0.0     140703 F51  0.1+  0.1-
    
    Ephemeris:
    2014 MB55                a,e,i = 2.67, 0.61, 1                   q = 1.0289
    Date    TT    R. A. (2000) Decl.     Delta      r     Elong.  Phase     V
    2014 06 04    11 45 48.2 -03 27 14   0.05141 1.0289   104.9    72.3    20.6
    ...
    2014 06 19    19 35 21.3 -37 21 10   0.03511 1.0475   153.3    25.8    18.5
    ...
    2014 06 27    21 06 04.3 -27 06 03   0.06877 1.0722   142.9    34.9    20.3
    ...
    2014 07 03    21 24 10.5 -23 51 25   0.09700 1.0967   144.1    33.0    21.0
    2014 07 04    21 25 52.6 -23 29 29   0.1018  1.1012   144.6    32.4    21.1
    2014 07 05    21 27 20.1 -23 09 36   0.1067  1.1059   145.1    31.7    21.2
    ...
    2014 07 11    21 32 23.6 -21 42 25   0.1368  1.1364   149.3    27.1    21.7
    ...
    2014 07 19    21 33 16.1 -20 38 14   0.1794  1.1828   156.4    20.1    22.1
    ...
    2014 08 03    21 27 51.6 -19 43 02   0.2715  1.2837   171.1     7.0    22.7
    
    A. U. Tomatic                (C) Copyright 2014 MPC           M.P.E.C. 2014-N21
    

    Read MPEC 2014-N20 Read MPEC 2014-N22


    MPEC number:

    Enter an MPEC number in one of the following forms:

    • 1997-B01 (the full form)
    • J97B01 (the packed version of the full form)
    • B01 (the abbreviated form)